Probability
0 0 0 0 0 0 0 0 0 0 0 0 0 0 0 0 0 0 0 0 0 0 0 0 0 0 0 0 0 0 0 0 0 0 0 0 0 0 0 0 0 0 0 0
0 0 0 0 0 0 0 0 0 0 0 0 0 0 0 0 0 0 0 0 0 0 0 0 0 0 0 0 0 0 0 0 0 0 0 0 0 0 0 0 0 0 0 0
0 0 0 0 0 0 0 0 0 0 0 0 0 0 0 0 0 0 0 0 0 0 0 0 0 0 0 0 0 0 0 0 0 0 0 0 0 0 0 0 0 0 0 0
0 0 0 0 0 0 0 0 0 0 0 0 0 0 0 0 0 0 0 0 0 0 0 0 0 0 0 0 0 0 0 0 0 0 0 0 0 0 0 0 0 0 0 0
0 0 0 0 0 0 0 0 0 0 0 0 0 0 0 0 0 0 0 0 0 0 0 0 0 0 0 0 0 0 0 0 0 0 0 0 0 0 0 0 0 0 0 0
0 0 0 0 0 0 0 0 0 0 0 0 0 0 0 0 0 0 0 0 0 0 0 0 0 0 0 0 0 0 0 0 0 0 0 0 0 0 0 0 0 0 0 0
0 0 0 0 0 0 0 0 0 0 0 0 0 0 0 0 0 0 0 0 0 0 0 0 0 0 0 0 0 0 0 0 0 0 0 0 0 0 0 0 0 0 0 0
0 0 0 0 0 0 0 0 0 0 0 0 0 0 0 0 0 0 0 0 0 0 0 0 0 0 0 0 0 0 0 0 0 0 0 0 0 0 0 0 0 0 0 0
0 0 0 0 0 0 0 0 0 0 0 0 0 0 0 0 0 0 0 0 0 0 0 0 0 0 0 0 0 0 0 0 0 0 0 0 0 0 0 0 0 0 0 0
0 0 0 0 0 0 0 0 0 0 0 0 0 0 0 0 0 0 0 0 0 0 0 0 0 0 0 0 0 0 0 0 0 0 0 0 0 0 0 0 0 0 0 0
0 0 0 0 0 0 0 0 0 0 0 0 0 0 0 0 0 0 0 0 0 0 0 0 0 0 0 0 0 0 0 0 0 0 0 0 0 0 0 0 0 0 0 0
0 0 0 0 0 0 0 0 0 0 0 0 0 0 0 0 0 0 0 0 0 0 0 0 0 0 0 0 0 0 0 0 0 0 0 0 0 0 0 0 0 0 0 0
0 0 0 0 0 0 0 0 0 0 0 0 0 0 0 0 0 0 0 0 0 0 0 0 0 0 0 0 0 0 0 0 0 0 0 0 0 0 0 0 0 0 0 0
0 0 0 0 0 0 0 0 0 0 0 0 0 0 0 0 0 0 0 0 0 0 0 0 0 0 0 0 0 0 0 0 0 0 0 0 0 0 0 0 0 0 0 0
0 0 0 0 0 0 0 0 0 0 0 0 0 0 0 0 0 0 0 0 0 0 0 0 0 0 0 0 0 0 0 0 0 0 0 0 0 0 0 0 0 0 0 0
0 0 0 0 0 0 0 0 0 0 0 0 0 0 0 0 0 0 0 0 0 0 0 0 0 0 0 0 0 0 0 0 0 0 0 0 0 0 0 0 0 0 0 0
0 0 0 0 0 0 0 0 0 0 0 0 0 0 0 0 0 0 0 0 0 0 0 0 0 0 0 0 0 0 0 0 0 0 0 0 0 0 0 0 0 0 0 0
0 0 0 0 0 0 0 0 0 0 0 0 0 0 0 0 0 0 0 0 0 0 0 0 0 0 0 0 0 0 0 0 0 0 0 0 0 0 0 0 0 0 0 0
0 0 0 0 0 0 0 0 0 0 0 0 0 0 0 0 0 0 0 0 0 0 0 0 0 0 0 0 0 0 0 0 0 0 0 0 0 0 0 0 0 0 0 0
0 0 0 0 0 0 0 0 0 0 0 0 0 0 0 0 0 0 0 0 0 0 0 0 0 0 0 0 0 0 0 0 0 0 0 0 0 0 0 0 0 0 0 0
0 0 0 0 0 0 0 0 0 0 0 0 0 0 0 0 0 0 0 0 0 0 0 0 0 0 0 0 0 0 0 0 0 0 0 0 0 0 0 0 0 0 0 0
0 0 0 0 0 0 0 0 0 0 0 0 0 0 0 0 0 0 0 0 0 0 0 0 0 0 0 0 0 0 0 0 0 0 0 0 0 0 0 0 0 0 0 0
0 0 0 0 0 0 0 0 0 0 0 0 0 0 0 0 0 0 0 0 0 0 0 0 0 0 0 0 0 0 0 0 0 0 0 0 0 0 0 0 0 0 0 0
0 0 0 0 0 0 0 0 0 0 0 0 0 0 0 0 0 0 0 0 0 0 0 0 0 0 0 0 0 0 0 0 0 0 0 0 0 0 0 0 0 0 0 0
0 0 0 0 0 0 0 0 0 0 0 0 0 0 0 0 0 0 0 0 0 0 0 0 0 0 0 0 0 0 0 0 0 0 0 0 0 0 0 0 0 0 0 0
0 0 0 0 0 0 0 0 0 0 0 0 0 0 0 0 0 0 0 0 0 0 0 0 0 0 0 0 0 0 0 0 0 0 0 0 0 0 0 0 0 0 0 0
0 0 0 0 0 0 0 0 0 0 0 0 0 0 0 0 0 0 0 0 0 0 0 0 0 0 0 0 0 0 0 0 0 0 0 0 0 0 0 0 0 0 0 0
Wind_Speed
4 5 4 5 4 2 5 8 7 7 9 9 10 10 9 8 7 6 6 5 4 4 4 4 5 5 6 5 5 4 4 5 6 6 6 5 6 6 6 6 7 7 7 7
5 6 7 6 4 1 3 4 7 8 5 7 6 5 6 7 7 6 5 4 4 3 3 4 5 5 5 5 5 4 5 6 6 5 5 5 6 6 6 7 7 7 7 8
4 7 5 5 3 2 3 3 8 6 7 6 5 7 7 7 7 6 6 5 4 4 4 5 5 5 5 5 4 4 5 5 5 4 5 6 7 7 7 7 7 8 8 8
1 4 2 9 5 4 6 3 5 7 6 7 7 5 5 7 8 7 7 6 4 4 4 4 4 4 4 4 4 4 5 4 4 5 6 6 7 7 8 7 7 8 8 9
3 1 6 8 4 4 6 2 4 8 7 7 6 3 2 6 8 8 7 6 5 5 4 3 4 4 3 4 4 4 4 5 5 5 7 7 8 8 8 7 8 8 8 9
4 3 5 9 5 5 9 1 5 7 8 8 8 2 6 8 7 7 7 5 4 3 2 3 4 3 2 4 4 5 5 6 6 6 7 8 9 9 8 7 8 9 9 8
4 5 8 7 4 4 3 9 9 9 9 9 9 9 8 7 8 7 7 5 4 3 2 3 3 2 2 4 4 5 5 5 6 6 7 8 8 7 8 8 9 9 9 8
3 2 7 7 3 6 10 7 8 9 9 9 10 8 7 9 9 8 7 5 4 3 2 3 3 1 3 4 5 5 5 6 7 7 8 8 8 9 8 8 9 9 7 7
7 9 10 7 9 9 8 8 9 10 10 10 10 9 10 9 9 8 7 6 4 4 3 3 3 2 3 5 4 4 5 6 7 8 8 7 8 8 8 7 6 7 6 6
4 8 8 8 7 5 8 10 11 11 11 11 11 11 10 9 8 8 7 6 4 3 2 3 3 3 4 4 3 4 5 7 7 8 8 8 6 6 6 7 7 6 6 5
5 8 6 6 7 8 8 8 8 9 10 12 12 10 11 9 9 8 7 5 5 4 4 4 4 4 4 3 2 4 6 6 7 7 8 8 8 7 7 8 8 8 6 5
7 9 6 8 8 7 7 8 9 9 9 8 11 11 11 10 9 8 7 6 5 5 4 4 4 4 4 3 2 4 5 6 6 6 7 7 8 9 10 11 14 13 11 8
9 8 7 7 6 6 7 7 7 8 9 9 9 10 11 9 8 8 7 7 6 6 5 4 4 4 4 3 3 4 5 6 6 6 7 7 7 7 10 11 11 9 9 9
7 5 3 3 4 4 4 3 2 2 5 8 9 9 9 8 7 8 8 7 6 5 5 4 4 5 4 3 3 5 6 8 7 6 7 7 7 7 7 8 8 6 5 7
5 2 2 1 4 6 4 3 3 2 1 5 7 9 11 10 9 9 7 6 5 5 4 4 5 5 4 3 3 5 5 5 6 6 6 7 7 7 7 7 6 6 4 4
6 8 9 10 11 10 10 8 6 4 2 5 7 9 10 10 9 7 7 7 6 6 6 5 5 4 4 3 4 4 4 10 10 6 6 7 6 6 6 6 6 5 5 4
16 14 13 13 13 13 12 11 10 9 6 3 6 7 8 8 7 7 7 8 8 7 6 6 5 5 4 4 4 3 4 6 11 8 6 6 6 6 6 6 6 5 5 5
13 12 11 11 11 12 14 15 14 13 10 6 0 4 7 9 10 10 9 8 6 5 5 6 6 5 4 4 3 3 3 4 5 6 6 6 7 6 6 6 6 6 5 4
14 14 13 13 12 11 12 13 13 12 11 8 2 3 7 8 9 9 8 7 7 6 6 6 8 5 3 3 2 2 4 5 5 5 5 7 7 6 6 6 6 6 5 4
12 12 12 11 11 10 10 11 11 10 10 8 6 6 6 8 8 8 8 8 8 6 6 7 6 4 3 2 2 2 4 4 4 5 5 5 6 6 6 6 6 6 5 5
11 11 11 11 10 10 9 10 10 11 11 9 8 8 9 9 8 7 7 8 7 6 7 8 5 4 3 2 3 2 3 3 3 4 5 6 6 6 6 6 6 6 6 5
9 9 10 10 10 10 10 9 9 11 11 10 10 9 9 9 8 7 8 7 5 8 6 5 4 5 4 2 1 2 2 2 2 3 4 5 6 6 6 7 7 6 6 6
8 8 9 10 10 10 10 9 9 9 9 9 9 10 9 9 6 6 6 4 4 8 6 5 7 7 5 2 1 0 1 2 2 3 4 5 5 6 6 7 7 6 6 6
9 9 10 10 9 8 9 9 8 7 7 8 7 8 8 6 5 4 3 6 8 8 5 7 10 7 4 1 1 1 1 2 2 3 4 5 5 5 6 6 7 6 7 8
10 10 9 9 8 7 7 7 7 6 6 6 8 9 7 5 4 2 1 3 6 7 4 6 7 6 3 2 3 2 2 2 3 3 4 5 6 6 6 6 7 7 7 7
8 7 7 6 6 5 4 4 4 5 5 6 6 7 7 5 3 2 1 3 5 6 5 4 4 5 4 4 4 4 3 3 4 4 5 6 6 6 6 7 9 7 6 7
7 6 5 5 5 4 4 4 4 5 5 5 6 6 5 4 2 1 2 2 3 3 4 5 6 6 5 5 5 4 4 4 4 4 5 5 6 6 7 8 7 7 6 7
Wind_Direction
254 282 318 307 305 170 151 168 161 177 173 202 199 194 197 195 188 178 185 191 196 213 238 254 260 261 258 258 261 254 252 257 261 264 267 271 276 276 276 274 274 264 260 259
323 317 326 316 310 118 139 131 128 133 185 215 201 189 189 182 169 171 180 186 193 208 241 263 268 269 266 261 261 253 254 261 267 275 280 282 283 282 282 278 274 270 264 261
290 313 356 321 281 131 127 143 148 166 193 187 184 190 185 174 163 171 184 192 205 227 246 259 266 265 262 259 264 267 267 272 281 288 292 291 295 296 287 281 276 273 267 262
214 13 310 257 259 145 120 94 136 141 165 175 175 172 174 170 170 186 193 201 221 237 251 260 263 267 266 267 276 281 284 288 290 293 294 294 294 291 287 279 277 274 272 266
138 209 275 289 279 158 122 67 151 145 158 160 150 108 251 209 190 192 198 202 215 225 230 253 274 274 278 288 293 296 295 293 288 291 295 297 297 293 288 284 281 275 271 268
156 191 246 256 258 135 99 163 220 165 166 166 147 144 250 225 200 195 197 199 207 218 230 275 282 286 292 296 300 296 292 291 290 291 293 295 292 290 287 282 280 280 277 270
201 224 256 245 219 107 125 231 214 186 181 174 179 200 213 195 193 194 192 194 185 185 231 265 275 286 295 296 288 282 289 295 297 296 295 290 288 288 289 287 286 283 279 278
178 208 261 243 196 180 214 211 195 192 189 186 198 206 193 183 187 185 183 185 180 189 243 268 272 269 288 284 276 285 296 302 301 300 299 305 297 294 290 286 288 286 282 284
186 213 233 224 210 215 185 185 199 196 197 184 185 192 186 185 183 184 184 189 191 193 235 272 269 233 259 269 278 294 306 306 303 303 299 294 292 293 296 291 284 286 283 280
265 267 257 249 243 230 195 198 203 196 190 180 185 188 183 179 181 183 186 190 188 189 227 261 257 245 242 263 278 298 304 303 303 304 304 302 296 287 288 288 287 286 280 273
284 283 302 290 250 233 222 214 208 204 195 190 184 183 179 179 182 185 188 191 182 189 216 242 247 249 252 257 285 301 300 299 303 299 300 303 299 290 284 275 267 269 269 255
245 248 225 250 256 244 228 225 214 204 208 201 184 181 176 179 181 181 185 182 181 193 212 237 239 240 248 250 265 293 300 302 301 301 301 300 303 305 294 281 282 273 252 239
235 239 217 240 265 255 232 226 212 200 200 197 189 176 170 174 180 178 180 180 186 197 209 226 227 235 245 243 261 284 288 294 298 298 300 302 301 301 307 309 304 289 266 247
253 235 249 288 289 289 261 238 199 201 202 189 179 171 168 166 168 175 183 189 187 187 199 211 217 238 239 233 266 285 288 295 299 293 295 297 297 294 292 295 303 304 284 257
281 237 225 326 14 11 9 25 37 3 220 188 177 173 172 170 173 182 184 178 175 185 203 212 230 246 229 236 269 283 290 292 294 293 295 294 294 294 294 293 291 290 293 285
24 34 34 34 27 20 20 19 12 342 288 200 191 189 180 170 167 171 175 170 178 200 213 222 232 226 216 243 273 280 284 301 309 302 300 302 302 302 302 301 299 294 285 271
48 35 29 28 24 20 19 14 7 355 344 290 215 186 159 153 159 174 188 194 197 201 207 209 207 203 222 246 258 269 283 299 309 308 300 301 303 303 302 300 298 297 287 269
52 48 41 34 26 17 13 10 7 3 355 340 320 150 163 172 184 195 200 195 194 208 215 196 186 195 226 249 248 263 280 287 296 301 304 306 307 304 305 306 306 305 301 295
36 33 28 25 19 14 8 4 358 353 352 351 330 207 206 206 205 202 193 188 197 216 219 192 187 192 220 233 236 269 282 290 299 304 308 312 313 310 314 314 312 313 307 300
26 20 16 11 6 1 353 346 342 337 334 334 313 279 256 240 223 207 195 203 211 205 184 174 178 185 193 217 276 279 285 292 306 316 320 318 316 316 317 319 318 316 315 307
10 3 357 350 342 337 332 328 325 320 318 316 304 283 267 258 240 216 203 223 232 186 165 166 161 163 178 229 285 283 289 303 322 327 326 322 319 320 321 323 321 318 317 318
348 339 333 328 324 319 315 312 309 307 307 306 301 295 288 275 256 238 227 226 202 164 155 152 155 168 180 217 259 285 301 326 335 332 327 325 322 322 323 323 322 322 324 324
321 314 310 306 303 300 302 304 303 303 303 303 304 303 294 280 260 239 246 229 167 166 157 157 167 172 178 188 221 325 344 344 343 336 326 322 322 321 320 322 324 325 325 326
309 305 299 297 302 307 307 306 309 313 315 314 315 318 317 308 296 266 231 172 169 164 156 165 172 170 160 136 109 72 28 360 347 337 329 325 324 325 326 327 328 328 328 329
302 301 302 309 313 308 302 310 321 327 333 331 329 330 331 320 295 276 165 142 143 140 145 175 174 149 116 96 86 67 43 16 2 349 339 334 331 330 330 330 330 330 335 340
296 297 296 298 297 295 303 317 322 321 322 325 325 326 330 333 345 25 102 137 145 145 142 137 127 114 98 92 79 64 44 20 8 357 344 337 333 335 335 333 333 336 340 347
294 297 300 307 308 310 315 319 317 318 319 320 315 314 319 326 334 35 111 112 112 111 109 106 104 101 93 82 72 57 39 24 9 355 346 340 338 339 337 335 338 341 347 352